Location: ČR
(50.0000°N, 15.0000°E)
Time: 00:06:28
(UTC+01:00)

ARIANE 6 FM1 Upper Stage - Pass Details

Date: 21 January 2026
Orbit: 522 x 609 km, 62.0° (Epoch: 15 February)

Event Time Altitude Azimuth Distance (km) Brightness Sun altitude
Rises 18:33:55 0° 188° (S) 2,705 6.4 -18.6°
Reaches altitude 10° 18:36:28 10° 173° (S) 1,801 5.3 -19.0°
Enters shadow 18:38:15 19° 151° (SSE) 1,327 4.3 -19.3°
